Location: Tamazert
(32.6352°N, 5.2072°W)
Time: 16:17:37
(UTC+00:00)

Cosmos 1943 Rocket - Pass Details

Date: 22 May 2022
Orbit: 810 x 845 km, 71.0° (Epoch: 06 July)

Event Time Altitude Azimuth Distance (km) Brightness Sun altitude
Rises 04:29:44 0° 324° (NW) 3,406 5.3 -9.8°
Reaches altitude 10° 04:32:35 10° 311° (NW) 2,467 4.5 -9.3°
Maximum altitude 04:37:03 24° 259° (WSW) 1,659 3.2 -8.5°
Drops below altitude 10° 04:41:30 10° 206° (SSW) 2,450 4.1 -7.7°
Sets 04:44:21 0° 193° (SSW) 3,376 4.9 -7.1°
